Regional Weather Roundup
Issued by NWS

Home | Current Version | Previous Version | Text Only | Print | Product List | Glossary On
Versions: 1 2 3 4 5 6 7 8 9 10 11 12 13 14 15 16 17 18 19 20 21 22 23 24 25 26 27 28 29 30 31 32 33 34 35 36 37 38 39 40 41 42 43 44 45 46 47 48 49 50
000
ASUS43 KMKX 260821
RWRWI

WISCONSIN REGIONAL WEATHER ROUNDUP
NATIONAL WEATHER SERVICE MILWAUKEE/SULLIVAN WI
300 AM CDT SUN APR 26 2015

NOTE: "FAIR" INDICATES FEW OR NO CLOUDS BELOW 12,000 FEET WITH NO
SIGNIFICANT WEATHER AND/OR OBSTRUCTIONS TO VISIBILITY.

WIZ001-002-006>008-014>016-023>028-260900-
NORTHWEST WISCONSIN

CITY           SKY/WX    TMP DP  RH WIND       PRES   REMARKS
SUPERIOR ARPT  CLEAR     26  24  93 CALM      30.10R
ASHLAND        CLEAR     24  22  91 NE3       30.09R
HAYWARD        CLEAR     29  22  75 N6        30.06R WCI  23
SIREN          CLEAR     31  22  69 CALM      30.06R
CUMBERLAND     CLEAR     32  21  64 NE7       30.02S WCI  26
RICE LAKE      CLEAR     32  24  71 N5        30.04R WCI  28
CHETEK         CLEAR     37  24  58 NE5       30.03R WCI  34
LADYSMITH      CLEAR     34  24  66 CALM      30.04R
EAU CLAIRE     CLEAR     34  23  64 NE6       30.01R WCI  29
MENOMONIE      CLEAR     37  22  55 N3        30.02R
NEW RICHMOND   CLEAR     33  21  60 NE7       30.02R WCI  27
OSCEOLA        CLEAR     35  21  57 CALM      30.06R
$$

WIZ003>005-009-010-017-018-260900-
NORTH CENTRAL WISCONSIN

CITY           SKY/WX    TMP DP  RH WIND       PRES   REMARKS
MANITOWISH WTR CLEAR     26  21  83 CALM      30.03S
ARBOR VITAE    CLEAR     30  20  66 CALM      30.03S
WOODRUFF       CLEAR     30  20  66 CALM      30.03S
RHINELANDER    CLEAR     30  20  66 N3        30.03R
EAGLE RIVER    CLEAR     25  19  78 CALM      30.02S
LAND O LAKES   CLEAR     26  19  76 CALM      30.03S
PHILLIPS       CLEAR     30  20  67 CALM      30.02S
TOMAHAWK       CLEAR     29  22  76 CALM      30.03R
MEDFORD        CLEAR     30  23  74 CALM      30.01R
MERRILL        CLEAR     29  22  73 CALM      30.02R
$$

WIZ029-030-035-036-043>047-260900-
CENTRAL WISCONSIN

CITY           SKY/WX    TMP DP  RH WIND       PRES   REMARKS
WAUSAU         CLEAR     34  23  64 N5        30.00R WCI  30
MOSINEE        CLEAR     34  21  60 NE6       30.01R WCI  29
MARSHFIELD     CLEAR     36  20  52 E6        29.99R WCI  31
STEVENS POINT  CLEAR     29  19  65 N6        30.01R WCI  23
WAUPACA        CLEAR     36  22  56 N5        30.00R WCI  32
WAUTOMA        CLEAR     36  21  54 N7        30.00R WCI  30
WISC RAPIDS    CLEAR     36  19  50 NE6       30.01R WCI  31
CAMP DOUGLAS   CLEAR     24  24  97 W2        29.99R
$$

WIZ011>013-019>022-031-037>040-048>050-260900-
NORTHEAST WISCONSIN

CITY           SKY/WX    TMP DP  RH WIND       PRES   REMARKS
ANTIGO         CLEAR     29  23  80 N8        30.01R WCI  21
SHAWANO        CLEAR     36  22  56 N6        30.02R WCI  31
OCONTO         CLEAR     32  21  64 N3        30.01R
STURGEON BAY   CLEAR     34  27  75 N8        30.01R WCI  27
GREEN BAY      CLEAR     35  23  61 N10       30.00R WCI  27
MANITOWOC      CLEAR     37  28  70 NE7       29.98R WCI  32
APPLETON       CLEAR     32  23  69 N10       29.99R WCI  24
CLINTONVILLE   CLEAR     34  19  55 N8        30.01R WCI  27
OSHKOSH        CLEAR     40  29  64 NE10      29.98R WCI  33
$$

WIZ032>034-041-042-053>061-260900-
SOUTHWEST WISCONSIN

CITY           SKY/WX    TMP DP  RH WIND       PRES   REMARKS
LA CROSSE      CLEAR     37  26  64 CALM      30.00R
SPARTA         CLEAR     25  19  79 CALM      30.01S
VIROQUA        CLEAR     33  19  56 NE7       29.98S WCI  27
BOSCOBEL       CLEAR     28  24  85 CALM      29.99R
PRAIRIE DU CHI CLEAR     33  27  80 CALM      29.98R
PLATTEVILLE    CLEAR     33  24  71 N7        29.94S WCI  26
$$

WIZ056-057-062-063-064-067-068-260900-
SOUTH CENTRAL WISCONSIN

CITY           SKY/WX    TMP DP  RH WIND       PRES   REMARKS
REEDSBURG      CLEAR     37  18  46 NE3       29.98R
BARABOO/DELLS  CLEAR     31  16  53 CALM      29.97S
LONE ROCK      CLEAR     31  23  72 SW3       29.98R
MINERAL POINT  CLEAR     36  18  48 N8        29.94S WCI  29
MADISON        CLEAR     33  21  61 N7        29.95R WCI  27
MIDDLETON      CLEAR     36  22  58 N6        29.96R WCI  31
WATERTOWN      CLEAR     32  25  73 NE5       29.94R WCI  28
MONROE         CLEAR     36  25  64 N10       29.92F WCI  28
JANESVILLE     CLEAR     37  21  52 N5        29.93R WCI  34
$$

WIZ051-052-058>065-066-070>072-260900-
SOUTHEAST WISCONSIN

CITY           SKY/WX    TMP DP  RH WIND       PRES   REMARKS
MILWAUKEE      CLEAR     36  28  73 N7        29.95R WCI  30
WAUKESHA       CLEAR     34  27  75 CALM      29.95R
MILWAUKEE/TIMM CLEAR     36  28  75 NE5       29.95S WCI  32
RACINE         CLEAR     36  28  73 N8        29.95R WCI  30
BURLINGTON     CLEAR     29  23  77 N3        29.93R
KENOSHA        CLEAR     35  30  82 N8        29.92R WCI  29
FOND DU LAC    CLEAR     38  24  57 NE13      29.97R WCI  30
SHEBOYGAN      CLEAR     35  28  75 NE9       29.96R WCI  28
WEST BEND      CLEAR     34  27  75 N3        29.95S
JUNEAU         CLEAR     35  24  63 N9        29.96R WCI  28
$$

LSZ147-162-260900-
LAKE SUPERIOR

STATION/POSITION TIME  TEMP    WIND        PRES    WAVE
                       AIR SEA DIR/SP/G            HT/PER
                 (UTC) (F)     (DEG/KT/KT) (MB)    (FT/S)
W MID LAKE BUOY  0750   36 34  350/  6/  8 1020.0F   1
DEVILS ISLAND    0800   36      30/  5/  6 1019.7R
PORT WING        0700   29     160/  3/  3 1019.0R
SAXON HARBOR     0700   27      CALM  /  3 1018.3
$$

LMZ867-665-643>646-260900-
LAKE MICHIGAN

STATION/POSITION TIME  TEMP    WIND        PRES    WAVE
                       AIR SEA DIR/SP/G            HT/PER
                 (UTC) (F)     (DEG/KT/KT) (MB)    (FT/S)
CHAMBERS ISLAND  0700   36     340/ 10/ 11 1015.9S
NORTHPORT PIER   0700   37     320/ 10/ 12 1015.6S
SISTER BAY       0702   36     360/  5/  6   N/A
KEWAUNEE LAKESHO 0700   38      10/  8/ 11 1014.3R
SHEBOYGAN LAKESH 0800   38      10/ 16/ 17 1015.5R
PORT WASHINGTON  0700   40     340/  5/ 12 1014.9R
MILWAUKEE LAKESH 0800   40     360/ 10/ 12   N/A
KENOSHA   LAKESH 0800   43      20/ 11/ 13 1013.5R
$$

TC  - TEMPERATURE IN CELSIUS
VSB - VISIBILITY IN STATUTE MILES
WCI - WIND CHILL INDEX
HX  - HEAT INDEX




USA.gov is the U.S. government's official web portal to all federal, state and local government web resources and services.